When you browse on this site, cookies collect data to enhance your experience and personalize the content and advertising you see.
Visit our Privacy Policy to learn more. By continuing to use the site, you agree to this use of cookies and data.

Météo par heure à Monterey

Ce jour, 11 Juillet, Samedi

Heure Température Précipitation Vent Pression Humidité
00:00 +18°C° 0 mm 2 m/s 755 mmHg 52%
01:00 +18°C° 0 mm 2 m/s 755 mmHg 51%
02:00 +18°C° 0 mm 2 m/s 755 mmHg 50%
03:00 +18°C° 0 mm 2 m/s 754 mmHg 48%
04:00 +18°C° 0 mm 2 m/s 754 mmHg 47%
05:00 +20°C° 0 mm 2 m/s 755 mmHg 44%
06:00 +23°C° 0 mm 2 m/s 755 mmHg 40%
07:00 +25°C° 0 mm 2 m/s 755 mmHg 36%
08:00 +27°C° 0 mm 3 m/s 755 mmHg 34%
09:00 +29°C° 0 mm 3 m/s 756 mmHg 32%
10:00 +30°C° 0 mm 4 m/s 756 mmHg 30%
11:00 +30°C° 0 mm 4 m/s 756 mmHg 31%
12:00 +30°C° 0 mm 4 m/s 755 mmHg 32%
13:00 +30°C° 0 mm 4 m/s 755 mmHg 32%
14:00 +29°C° 0 mm 4 m/s 755 mmHg 34%
15:00 +28°C° 0 mm 4 m/s 755 mmHg 37%
16:00 +27°C° 0 mm 4 m/s 754 mmHg 39%
17:00 +25°C° 0 mm 4 m/s 754 mmHg 43%
18:00 +22°C° 0 mm 3 m/s 754 mmHg 47%
19:00 +21°C° 0 mm 3 m/s 754 mmHg 51%
20:00 +20°C° 0 mm 3 m/s 754 mmHg 50%
21:00 +19°C° 0 mm 2 m/s 755 mmHg 50%
22:00 +18°C° 0 mm 2 m/s 755 mmHg 49%
23:00 +18°C° 0 mm 2 m/s 754 mmHg 50%

Demain, 12 Juillet, Dimanche

Heure Température Précipitation Vent Pression Humidité
00:00 +18°C° 0 mm 3 m/s 754 mmHg 51%
01:00 +18°C° 0 mm 3 m/s 754 mmHg 52%
02:00 +17°C° 0 mm 3 m/s 754 mmHg 55%
03:00 +17°C° 0 mm 3 m/s 754 mmHg 57%
04:00 +16°C° 0 mm 2 m/s 753 mmHg 60%
05:00 +18°C° 0 mm 2 m/s 754 mmHg 55%
06:00 +20°C° 0 mm 2 m/s 754 mmHg 50%
07:00 +23°C° 0 mm 2 m/s 754 mmHg 45%
08:00 +25°C° 0 mm 3 m/s 754 mmHg 41%
09:00 +27°C° 0 mm 3 m/s 754 mmHg 37%
10:00 +29°C° 0 mm 3 m/s 754 mmHg 33%
11:00 +30°C° 0 mm 4 m/s 753 mmHg 33%
12:00 +30°C° 0 mm 4 m/s 753 mmHg 32%
13:00 +30°C° 0 mm 4 m/s 753 mmHg 32%
14:00 +29°C° 0 mm 4 m/s 752 mmHg 34%
15:00 +27°C° 0 mm 4 m/s 752 mmHg 37%
16:00 +26°C° 0 mm 4 m/s 751 mmHg 39%
17:00 +23°C° 0 mm 4 m/s 751 mmHg 46%
18:00 +21°C° 0 mm 4 m/s 751 mmHg 54%
19:00 +19°C° 0 mm 4 m/s 751 mmHg 61%
20:00 +18°C° 0 mm 3 m/s 752 mmHg 67%
21:00 +17°C° 0 mm 3 m/s 752 mmHg 73%
22:00 +16°C° 0 mm 3 m/s 752 mmHg 79%
23:00 +16°C° 0 mm 3 m/s 752 mmHg 79%

Après-demain, 13 Juillet, Lundi

Heure Température Précipitation Vent Pression Humidité
00:00 +16°C° 0 mm 3 m/s 752 mmHg 80%
01:00 +16°C° 0 mm 2 m/s 752 mmHg 80%
02:00 +14°C° 0 mm 3 m/s 752 mmHg 82%
03:00 +14°C° 0 mm 3 m/s 752 mmHg 83%
04:00 +14°C° 0 mm 3 m/s 752 mmHg 85%
05:00 +16°C° 0 mm 3 m/s 752 mmHg 81%
06:00 +17°C° 0 mm 3 m/s 752 mmHg 77%
07:00 +18°C° 0 mm 3 m/s 753 mmHg 73%
08:00 +19°C° 0 mm 3 m/s 753 mmHg 67%
09:00 +21°C° 0 mm 4 m/s 753 mmHg 61%
10:00 +22°C° 0 mm 4 m/s 753 mmHg 55%
11:00 +23°C° 0 mm 4 m/s 753 mmHg 54%
12:00 +23°C° 0 mm 4 m/s 753 mmHg 54%
13:00 +23°C° 0 mm 4 m/s 753 mmHg 53%
14:00 +23°C° 0 mm 4 m/s 752 mmHg 56%
15:00 +22°C° 0 mm 4 m/s 752 mmHg 58%
16:00 +21°C° 0 mm 4 m/s 752 mmHg 60%
17:00 +19°C° 0 mm 4 m/s 752 mmHg 68%
18:00 +17°C° 0 mm 3 m/s 752 mmHg 75%
19:00 +16°C° 0 mm 3 m/s 752 mmHg 82%
20:00 +14°C° 0 mm 3 m/s 752 mmHg 82%
21:00 +14°C° 0 mm 2 m/s 753 mmHg 81%
22:00 +14°C° 0 mm 2 m/s 753 mmHg 80%
23:00 +14°C° 0 mm 2 m/s 753 mmHg 79%

14 Juillet, Mardi

Heure Température Précipitation Vent Pression Humidité
00:00 +14°C° 0 mm 1 m/s 753 mmHg 79%
01:00 +14°C° 0 mm 1 m/s 753 mmHg 78%
02:00 +13°C° 0 mm 1 m/s 753 mmHg 78%
03:00 +13°C° 0 mm 1 m/s 753 mmHg 78%
04:00 +13°C° 0 mm 1 m/s 752 mmHg 78%
05:00 +15°C° 0 mm 1 m/s 753 mmHg 73%
06:00 +16°C° 0 mm 1 m/s 753 mmHg 69%
07:00 +19°C° 0 mm 1 m/s 753 mmHg 64%
08:00 +19°C° 0 mm 2 m/s 753 mmHg 59%
09:00 +21°C° 0 mm 3 m/s 753 mmHg 54%
10:00 +23°C° 0 mm 4 m/s 754 mmHg 49%
11:00 +23°C° 0 mm 4 m/s 753 mmHg 51%
12:00 +25°C° 0 mm 4 m/s 753 mmHg 52%
13:00 +25°C° 0 mm 5 m/s 753 mmHg 53%
14:00 +23°C° 0 mm 4 m/s 753 mmHg 55%
15:00 +23°C° 0 mm 4 m/s 752 mmHg 57%
16:00 +22°C° 0 mm 4 m/s 752 mmHg 59%
17:00 +20°C° 0 mm 4 m/s 752 mmHg 68%
18:00 +18°C° 0 mm 3 m/s 752 mmHg 76%
19:00 +16°C° 0 mm 3 m/s 752 mmHg 84%
20:00 +14°C° 0 mm 3 m/s 752 mmHg 86%
21:00 +15°C° 0 mm 2 m/s 753 mmHg 88%
22:00 +14°C° 0 mm 2 m/s 753 mmHg 90%
23:00 +14°C° 0 mm 2 m/s 753 mmHg 89%

15 Juillet, Mercredi

Heure Température Précipitation Vent Pression Humidité
00:00 +13°C° 0 mm 1 m/s 752 mmHg 87%
01:00 +13°C° 0 mm 1 m/s 752 mmHg 86%
02:00 +13°C° 0 mm 1 m/s 752 mmHg 84%
03:00 +13°C° 0 mm 1 m/s 752 mmHg 83%
04:00 +13°C° 0 mm 1 m/s 752 mmHg 81%
05:00 +15°C° 0 mm 1 m/s 752 mmHg 75%
06:00 +18°C° 0 mm 1 m/s 752 mmHg 69%
07:00 +19°C° 0 mm 1 m/s 752 mmHg 63%
08:00 +20°C° 0 mm 2 m/s 752 mmHg 58%
09:00 +22°C° 0 mm 3 m/s 752 mmHg 52%
10:00 +26°C° 0 mm 4 m/s 752 mmHg 47%
11:00 +26°C° 0 mm 4 m/s 752 mmHg 47%
12:00 +26°C° 0 mm 4 m/s 751 mmHg 47%
13:00 +27°C° 0 mm 5 m/s 751 mmHg 48%
14:00 +26°C° 0 mm 5 m/s 750 mmHg 52%
15:00 +25°C° 0 mm 5 m/s 750 mmHg 55%
16:00 +23°C° 0 mm 5 m/s 750 mmHg 59%
17:00 +20°C° 0 mm 4 m/s 750 mmHg 68%
18:00 +18°C° 0 mm 4 m/s 750 mmHg 77%
19:00 +16°C° 0 mm 3 m/s 750 mmHg 86%
20:00 +15°C° 0 mm 2 m/s 750 mmHg 88%
21:00 +15°C° 0 mm 2 m/s 751 mmHg 89%
22:00 +14°C° 0 mm 1 m/s 751 mmHg 91%
23:00 +14°C° 0 mm 1 m/s 751 mmHg 90%

16 Juillet, Jeudi

Heure Température Précipitation Vent Pression Humidité
00:00 +14°C° 0 mm 1 m/s 750 mmHg 89%
01:00 +14°C° 0 mm 1 m/s 750 mmHg 88%
02:00 +14°C° 0 mm 1 m/s 750 mmHg 86%
03:00 +14°C° 0 mm 1 m/s 750 mmHg 84%
04:00 +14°C° 0 mm 1 m/s 750 mmHg 82%
05:00 +16°C° 0 mm 1 m/s 751 mmHg 75%
06:00 +18°C° 0 mm 1 m/s 751 mmHg 69%
07:00 +20°C° 0 mm 1 m/s 751 mmHg 63%
08:00 +21°C° 0 mm 2 m/s 751 mmHg 59%
09:00 +24°C° 0 mm 3 m/s 751 mmHg 54%
10:00 +25°C° 0 mm 4 m/s 751 mmHg 49%
11:00 +25°C° 0 mm 4 m/s 751 mmHg 50%
12:00 +25°C° 0 mm 5 m/s 751 mmHg 51%
13:00 +25°C° 0 mm 5 m/s 751 mmHg 52%
14:00 +25°C° 0 mm 5 m/s 751 mmHg 54%
15:00 +23°C° 0 mm 4 m/s 750 mmHg 57%
16:00 +22°C° 0 mm 4 m/s 750 mmHg 59%
17:00 +20°C° 0 mm 3 m/s 750 mmHg 67%
18:00 +18°C° 0 mm 3 m/s 750 mmHg 76%
19:00 +16°C° 0 mm 2 m/s 751 mmHg 85%
20:00 +16°C° 0 mm 1 m/s 751 mmHg 84%
21:00 +15°C° 0 mm 1 m/s 751 mmHg 84%
22:00 +15°C° 0 mm 1 m/s 752 mmHg 84%
23:00 +15°C° 0 mm 1 m/s 752 mmHg 82%
Voir plus